[[{"header":{"parameterUnit":"m.s-1","parameterCategory":1,"la1":30.2991,"la2":30.254,"lo1":-89.0895,"lo2":-89.0444,"dy":0.0017,"dx":0.0017,"nx":28,"ny":28,"refTime":"2024-05-10T09:00:00:Z","depth":0,"parameterNumber":2,"parameterNumberName":"U-component_of_WINDS"},"data":[0,0,0,0,0,0,0,0,0,0,0,0,0,0,0,0,0,0,0,0,0,0,0,0,0,0,0,0,0,0,0,0,0,0,0,0,0,0,0,0,0,0,0,0,0,0,0,0,0,0,0,0,0,0,0,0,0,0,2.3585,2.3585,0,2.3573,2.3573,2.3572,2.349,2.3488,2.3486,2.3484,2.3476,2.3478,2.3479,0,0,0,0,0,0,0,0,0,0,0,0,0,2.3542,2.3543,2.3585,2.3585,2.3585,2.3573,2.3573,2.3572,2.3491,2.3488,2.3486,2.3483,2.3476,2.3477,2.3479,0,0,0,0,0,0,0,0,0,0,0,0,0,2.3549,2.3544,2.3585,2.3542,2.3538,2.3573,2.3572,2.3572,2.3491,2.3488,2.3485,2.3482,2.3475,2.3477,2.348,2.3556,0,0,2.3487,2.3488,0,0,0,0,0,0,0,0,2.3548,2.355,2.3549,2.3545,2.3541,2.353,2.3554,2.3567,2.3492,2.3509,2.3484,2.3481,2.3497,2.3497,2.3502,2.3555,2.3555,2.3488,2.3489,2.349,2.3491,0,0,0,0,0,0,0,2.3548,2.355,2.358,2.3549,2.3544,2.3525,2.3523,2.3556,2.352,2.3507,2.3501,2.3501,2.3494,2.3499,2.3501,2.3555,2.3487,2.349,2.3491,2.3492,2.367,2.3673,0,0,0,0,0,0,2.3553,2.355,2.3581,2.358,2.3537,2.3528,2.3526,2.3536,2.3519,2.3514,2.3503,2.3497,2.3497,2.3498,2.35,2.3587,2.349,2.3492,2.3494,2.3667,2.3671,2.3674,0,0,0,0,0,0,2.3552,2.3556,2.3581,2.3563,2.3565,2.3532,2.3545,2.3538,2.3543,2.3516,2.351,2.3515,2.3494,2.3497,2.3542,2.3585,2.3494,2.3496,2.3663,2.3668,2.3672,2.3761,0,0,0,0,0,0,2.3551,2.3557,2.3584,2.3565,2.3566,2.3622,2.3548,2.354,2.3547,2.3538,2.3526,2.3521,2.3492,2.3539,2.3545,2.3587,2.3498,2.3659,2.3665,2.3671,2.3754,2.3768,2.3781,0,0,0,0,0,2.355,2.361,2.3585,2.359,2.3599,2.3624,2.3625,2.359,2.3551,2.3578,2.3562,2.3521,2.3581,2.3544,2.355,2.3594,2.3656,2.3663,2.367,2.3748,2.3765,2.378,0,0,0,0,0,0,2.3636,2.3607,2.3579,2.3634,2.3632,2.361,2.3644,2.361,2.3619,2.3611,2.3568,2.3566,2.3618,2.3611,2.3571,2.3667,2.3611,2.362,2.3668,2.3685,2.3698,2.3697,2.35,0,0,0,0,0,2.3661,2.3682,2.3657,2.3708,2.3708,2.3677,2.3686,2.3659,2.3656,2.3655,2.3641,2.3641,2.3659,2.3672,2.3688,2.3754,2.375,2.3787,2.3801,2.3812,2.3819,2.3853,2.3869,2.3698,2.3698,2.3698,0,0,2.3714,2.37,2.3716,2.3725,2.372,2.3744,2.3676,2.3705,2.3722,2.366,2.37,2.3691,2.3688,2.3744,2.3768,2.374,2.3866,2.3821,2.383,2.3831,2.3862,2.3878,2.3893,2.3703,2.3702,2.3701,0,0,2.3821,2.3813,2.3854,2.3851,2.3845,2.3823,2.3834,2.3818,2.3808,2.3849,2.3802,2.3824,2.3857,2.3856,2.386,2.397,2.3933,2.3977,2.4044,2.4078,2.4092,2.4103,2.4141,2.4155,2.3985,2.3985,2.3985,0,2.3886,2.3919,2.3881,2.3912,2.3917,2.3861,2.3903,2.3903,2.3902,2.3908,2.3876,2.3916,2.391,2.3965,2.3991,2.3998,2.4008,2.3976,2.4093,2.4104,2.4114,2.415,2.4164,2.399,2.3989,2.3989,2.3988,0,2.4,2.4024,2.4059,2.4058,2.4068,2.4105,2.4073,2.4088,2.4061,2.4044,2.4087,2.4078,2.409,2.4102,2.4077,2.4154,2.4136,2.41,2.4043,2.4136,2.4169,2.4182,2.3997,2.3995,2.3994,2.3993,0,0,2.4157,2.4136,2.4149,2.4148,2.4138,2.4156,2.4192,2.4203,2.4216,2.4219,2.4247,2.4278,2.4243,2.4248,2.4223,2.4253,2.4339,2.4213,2.4212,2.4235,2.4423,2.4448,2.4464,2.4316,2.4319,2.4321,2.4422,0,2.4258,2.4314,2.4282,2.4344,2.4365,2.4314,2.4345,2.4343,2.4329,2.4347,2.4332,2.4353,2.4307,2.431,2.4338,2.4323,2.4376,2.4316,2.4342,2.4343,2.4341,2.4481,2.4508,2.4604,2.4435,2.4437,2.4438,0,2.4382,2.4389,2.4452,2.4438,2.4446,2.4474,2.4482,2.45,2.4497,2.4485,2.4491,2.4459,2.4494,2.4441,2.4489,2.4449,2.4458,2.4453,2.4456,2.4455,2.4394,2.4482,2.4634,2.4648,2.4458,2.4457,2.4455,0,2.4488,2.4513,2.4554,2.4556,2.4541,2.4562,2.4557,2.4551,2.4561,2.4569,2.4574,2.4588,2.4594,2.4606,2.4579,2.4542,2.463,2.4575,2.4621,2.4622,2.4639,2.4638,2.4793,2.465,2.465,2.465,2.465,0,2.4602,2.4642,2.4601,2.4626,2.4671,2.4635,2.468,2.467,2.4666,2.469,2.4648,2.4671,2.4635,2.4655,2.4635,2.4678,2.4682,2.4673,2.4667,2.4675,2.4676,2.4679,2.467,2.4654,2.4653,2.4652,2.4652,0,2.4726,2.47,2.4741,2.4724,2.4721,2.4755,2.4741,2.4764,2.4748,2.4778,2.4783,2.4759,2.478,2.4755,2.4776,2.4762,2.4819,2.4804,2.4819,2.4813,2.486,2.4856,2.502,2.5039,2.4887,2.4889,2.489,0,2.4798,2.4828,2.4815,2.4826,2.4824,2.4844,2.4853,2.482,2.4831,2.4832,2.4855,2.4873,2.4885,2.4923,2.4907,2.4923,2.4907,2.4964,2.4909,2.4916,2.4905,2.4902,2.4905,2.4974,2.4976,2.4977,2.4978,0,2.493,2.4916,2.4929,2.4939,2.4951,2.4958,2.4961,2.4974,2.494,2.4955,2.4976,2.4986,2.5006,2.5024,2.5036,2.5032,2.5,2.4996,2.5007,2.5015,2.5021,2.5016,2.4846,2.4992,2.499,2.4989,2.4989,2.4988,2.5028,2.5052,2.5046,2.5063,2.5063,2.5068,2.5088,2.5075,2.5091,2.5104,2.5085,2.5111,2.511,2.5122,2.5122,2.5143,2.5119,2.5136,2.514,2.5144,2.515,2.502,2.5146,2.5146,2.5145,2.5145,2.5144,0,2.5155,2.515,2.5166,2.5172,2.5186,2.5154,2.5157,2.5171,2.5194,2.5195,2.5208,2.5233,2.5251,2.5238,2.5254,2.5273,2.5259,2.5278,2.5275,2.5275,2.5171,2.5159,2.529,2.5289,2.5289,2.5289,2.5289,2.5289,2.5223,2.5261,2.5247,2.5286,2.528,2.5304,2.5309,2.5313,2.5314,2.5343,2.5357,2.5348,2.5344,2.536,2.5376,2.5371,2.5378,2.5403,2.5393,2.5296,2.5282,2.5268,2.5256,2.5405,2.5405,2.5494,2.5495,2.5496]},{"header":{"parameterUnit":"m.s-1","parameterCategory":1,"la1":30.2991,"la2":30.254,"lo1":-89.0895,"lo2":-89.0444,"dy":0.0017,"dx":0.0017,"nx":28,"ny":28,"refTime":"2024-05-10T09:00:00:Z","depth":0,"parameterNumber":3,"parameterNumberName":"V-component_of_WINDS"},"data":[0,0,0,0,0,0,0,0,0,0,0,0,0,0,0,0,0,0,0,0,0,0,0,0,0,0,0,0,0,0,0,0,0,0,0,0,0,0,0,0,0,0,0,0,0,0,0,0,0,0,0,0,0,0,0,0,0,0,3.1805,3.1806,0,3.1885,3.1886,3.1887,3.1849,3.1847,3.1845,3.1843,3.1921,3.1925,3.1928,0,0,0,0,0,0,0,0,0,0,0,0,0,3.1616,3.1619,3.1805,3.1806,3.1807,3.1885,3.1886,3.1887,3.1849,3.1847,3.1844,3.1842,3.1919,3.1924,3.1929,0,0,0,0,0,0,0,0,0,0,0,0,0,3.1697,3.1621,3.1805,3.1798,3.1798,3.1885,3.1886,3.1888,3.185,3.1847,3.1844,3.1841,3.1918,3.1924,3.1929,3.2027,0,0,3.1948,3.195,0,0,0,0,0,0,0,0,3.1692,3.1704,3.1798,3.1798,3.1799,3.1854,3.1848,3.1934,3.1851,3.183,3.1843,3.1839,3.1901,3.1908,3.1929,3.2031,3.2034,3.1948,3.1952,3.1954,3.1956,0,0,0,0,0,0,0,3.1687,3.17,3.1837,3.1799,3.18,3.1789,3.1797,3.1864,3.1881,3.1831,3.1829,3.1839,3.19,3.1924,3.1931,3.2035,3.1948,3.1953,3.1957,3.1959,3.2221,3.2224,0,0,0,0,0,0,3.1682,3.1696,3.1834,3.1839,3.1737,3.1795,3.1804,3.1839,3.188,3.1884,3.1842,3.1837,3.1915,3.1924,3.1934,3.2051,3.1954,3.196,3.1963,3.2218,3.2222,3.2226,0,0,0,0,0,0,3.1678,3.1695,3.1831,3.1767,3.1783,3.1802,3.1841,3.1842,3.1866,3.1888,3.1891,3.1863,3.1913,3.1925,3.2005,3.2053,3.1962,3.1968,3.2214,3.2219,3.2224,3.2287,0,0,0,0,0,0,3.1673,3.1694,3.1731,3.1768,3.1787,3.1902,3.1844,3.1846,3.1877,3.1872,3.1909,3.1912,3.1912,3.1996,3.2011,3.206,3.1972,3.221,3.2216,3.2222,3.228,3.2293,3.2304,0,0,0,0,0,3.1666,3.1745,3.1734,3.175,3.1835,3.1905,3.1915,3.1915,3.1881,3.1919,3.1933,3.1911,3.2046,3.2004,3.202,3.2072,3.2206,3.2214,3.2222,3.2275,3.2291,3.2304,0,0,0,0,0,0,3.1711,3.1749,3.1737,3.183,3.1865,3.1898,3.1946,3.1931,3.1975,3.1968,3.1964,3.1973,3.2055,3.2072,3.2025,3.2169,3.2121,3.2132,3.2156,3.2171,3.2183,3.2177,3.1977,0,0,0,0,0,3.1732,3.1787,3.1817,3.1896,3.1914,3.1927,3.1957,3.1954,3.1989,3.2003,3.2023,3.2057,3.2107,3.214,3.2187,3.2283,3.229,3.2326,3.2338,3.2348,3.2358,3.241,3.2427,3.2251,3.2251,3.2251,0,0,3.1776,3.1803,3.1837,3.1906,3.1932,3.1988,3.1939,3.2,3.2041,3.2011,3.2088,3.2105,3.2142,3.223,3.227,3.2246,3.2408,3.2358,3.2365,3.237,3.242,3.2436,3.2451,3.2256,3.2255,3.2254,0,0,3.1883,3.191,3.1979,3.2007,3.2049,3.2057,3.2074,3.211,3.212,3.2198,3.2177,3.2225,3.2312,3.2339,3.2365,3.2485,3.2466,3.2501,3.2563,3.2614,3.2628,3.2641,3.2684,3.2699,3.251,3.251,3.251,0,3.1931,3.2016,3.2016,3.208,3.211,3.2088,3.2158,3.2184,3.2238,3.226,3.2233,3.2342,3.2365,3.246,3.249,3.2511,3.2529,3.2496,3.2627,3.2639,3.265,3.2692,3.2708,3.2514,3.2514,3.2513,3.2513,0,3.2074,3.2133,3.2183,3.2239,3.2275,3.2341,3.235,3.2387,3.2381,3.2392,3.2472,3.2499,3.2552,3.2575,3.2569,3.2669,3.2653,3.2627,3.2578,3.2671,3.271,3.2725,3.252,3.2518,3.2517,3.2516,0,0,3.221,3.2267,3.2285,3.231,3.2355,3.24,3.2466,3.2519,3.2551,3.2589,3.2643,3.2718,3.2694,3.2723,3.272,3.2765,3.286,3.2733,3.2734,3.2756,3.2973,3.2992,3.3011,3.2848,3.2851,3.2853,3.297,0,3.2321,3.2437,3.244,3.2546,3.2601,3.2582,3.2638,3.2672,3.2684,3.2732,3.2745,3.2798,3.2762,3.278,3.2824,3.2839,3.2903,3.283,3.2897,3.29,3.2889,3.3031,3.3052,3.3161,3.2985,3.2987,3.2989,0,3.2466,3.2512,3.2624,3.2662,3.2685,3.2736,3.2787,3.2832,3.287,3.2876,3.2909,3.29,3.2966,3.2916,3.3006,3.2957,3.2985,3.2996,3.3,3.3006,3.295,3.3041,3.3195,3.3212,3.3013,3.3011,3.3009,0,3.2555,3.2644,3.2723,3.2745,3.2792,3.2829,3.2849,3.2884,3.2917,3.296,3.2981,3.3031,3.3058,3.3097,3.3101,3.3064,3.3193,3.3142,3.3199,3.3199,3.3226,3.3224,3.3387,3.3244,3.3244,3.3244,3.3243,0,3.2679,3.2748,3.2764,3.2812,3.289,3.2892,3.2968,3.2986,3.3017,3.3068,3.3054,3.3102,3.3105,3.3153,3.3157,3.3232,3.3244,3.325,3.325,3.3252,3.3251,3.3269,3.3262,3.3248,3.3247,3.3246,3.3245,0,3.2791,3.2804,3.2889,3.2928,3.2939,3.2994,3.3026,3.3072,3.3084,3.3149,3.3164,3.3182,3.324,3.3248,3.3314,3.3317,3.3407,3.3399,3.3395,3.3394,3.345,3.3444,3.363,3.3655,3.3496,3.3497,3.3498,0,3.2868,3.2922,3.2967,3.3001,3.3025,3.3079,3.3113,3.3118,3.3154,3.3202,3.3242,3.3298,3.3343,3.3435,3.3453,3.3504,3.3497,3.3559,3.3505,3.3505,3.3499,3.3496,3.3501,3.3569,3.3571,3.3572,3.3574,0,3.3005,3.301,3.306,3.3114,3.3156,3.3197,3.3237,3.3265,3.3275,3.3316,3.3375,3.341,3.348,3.3535,3.3586,3.3606,3.3592,3.3591,3.3607,3.3608,3.3604,3.3607,3.3423,3.3586,3.3585,3.3584,3.3583,3.3583,3.3103,3.315,3.319,3.3247,3.3277,3.3315,3.3361,3.338,3.343,3.3488,3.3487,3.3552,3.3589,3.3656,3.368,3.3731,3.371,3.3733,3.3739,3.3744,3.375,3.3596,3.374,3.3739,3.3739,3.3739,3.3738,0,3.3239,3.3264,3.3317,3.3374,3.3419,3.3404,3.3447,3.3485,3.3543,3.358,3.3625,3.3694,3.3749,3.3772,3.3826,3.3862,3.3856,3.3876,3.3873,3.3878,3.3765,3.3746,3.3879,3.3879,3.3879,3.3879,3.3879,3.3879,3.3315,3.3395,3.3404,3.3499,3.3523,3.3588,3.3615,3.3649,3.3679,3.3757,3.3803,3.3819,3.385,3.3906,3.3955,3.3961,3.3981,3.4003,3.4006,3.39,3.3886,3.3872,3.3854,3.4008,3.4008,3.4114,3.4115,3.4116]}]]